Vertical_Velocity
-1 -2 6 6 -5 8 5 2 -0 7 4 -15 -1 2 2 8 -4 2 2 -1 -3 -2 -0 -5 -3 -0 -2 0 1 1 -2 2 -4 1 -0 -1 -1 1 -2 -2 -0 -1 1 30
1 4 0 1 1 -2 -0 -1 1 -6 2 -15 6 3 0 3 -3 -2 -4 -1 -3 -2 2 -2 1 -1 -2 4 -3 -2 -1 0 -1 0 -1 -1 0 -2 -5 0 0 -0 2 0
-1 1 3 1 2 3 1 2 4 6 -3 -2 -6 13 -4 2 -1 0 -1 1 -3 -2 3 -1 -0 0 -1 4 -1 -2 -0 -4 2 0 -2 1 1 -3 -2 0 2 3 3 -1
1 2 -2 -0 -0 2 0 -2 -4 -2 -5 2 7 -3 0 9 2 0 -1 -1 1 2 2 2 1 1 2 3 -0 -2 2 -1 2 -1 -0 1 -1 -1 -3 -1 -1 2 1 -0
2 4 3 1 1 -1 -2 3 2 0 -0 -2 6 -16 -1 14 -1 -4 -2 -4 -0 -3 -2 1 -4 -1 -1 -3 -0 -3 1 2 -1 -2 -1 1 0 -1 -2 2 -1 1 2 2
-1 -1 4 -2 -1 0 1 3 1 3 -2 -2 -2 -6 7 2 2 -3 3 -1 3 3 5 1 2 -1 0 -0 -0 -1 2 1 -1 -1 -0 3 1 -1 -2 1 2 -3 1 2
0 -1 -1 0 -1 -0 0 4 3 -2 -3 4 -4 1 8 -2 4 -8 6 1 -2 1 3 3 2 5 3 0 -1 4 -0 0 -1 -1 1 2 1 -1 -1 -1 1 3 1 1
0 -2 1 2 1 1 -4 2 2 1 -0 -2 -2 6 -13 0 -1 -2 -0 -1 -1 1 -1 1 -0 0 -2 2 -1 3 -0 -0 0 0 -0 0 2 -0 0 0 -2 -2 2 1
0 0 1 0 1 1 -0 -0 0 -1 0 -4 5 1 8 -1 -0 1 1 1 -1 3 0 3 1 -3 2 1 0 2 -1 -1 3 2 2 -1 1 1 0 0 2 -0 -3 -1
-3 4 -0 2 -0 -1 0 0 -3 1 -2 -1 -3 0 -2 -2 -0 3 -1 -0 -1 4 3 2 1 2 0 5 -1 1 -2 -1 6 -0 1 -0 0 2 -2 -2 -0 1 2 -2
2 1 -8 2 4 -4 -1 0 0 -1 0 -2 -0 -2 3 -1 -4 2 3 -0 -4 2 2 2 0 4 2 1 -0 0 -3 4 1 2 2 2 -2 1 1 -0 -1 -0 -1 1
4 -1 2 1 -6 -1 -3 3 1 -1 -1 0 -1 -4 -2 4 3 -0 -1 2 -1 1 2 2 -1 7 -1 -3 0 0 -2 2 1 3 2 -0 -2 -1 1 1 -1 -1 -1 -1
-0 -3 6 5 0 -0 -1 3 1 -1 -1 -3 -6 9 1 5 2 4 -0 2 1 -2 1 1 1 2 8 1 -1 -4 -6 1 12 3 0 -1 -0 -0 1 -0 -0 -1 -2 -3
4 -1 3 -0 3 3 7 3 -1 -1 -1 -1 -5 -0 5 9 10 6 4 2 4 1 1 -3 0 6 -3 -0 0 -3 -2 9 7 3 -0 -1 -0 0 -0 -1 0 0 -0 -1
0 2 -1 -5 -4 4 1 0 -1 -1 -2 -1 -3 2 -3 -5 -1 8 13 9 5 2 4 -3 2 4 -0 -0 -2 0 -0 10 7 -1 4 1 -0 1 1 -0 0 -1 1 1
14 14 -0 -4 8 19 7 3 3 -0 1 1 0 2 -1 -1 -2 -3 5 10 12 -1 -2 3 -1 -2 6 2 0 -1 2 11 3 -3 -0 2 3 -0 0 -0 -1 -0 0 2
7 30 -3 0 5 7 4 -1 1 1 1 1 0 4 -0 0 -1 -6 -4 -2 18 21 -10 -2 -3 1 -1 2 -0 0 4 10 1 3 -4 0 7 7 1 2 -1 -1 2 -0
18 29 12 -2 -2 5 -6 -0 -3 3 -1 -3 -4 -5 1 -2 -2 8 2 -9 4 25 53 3 -0 -2 1 -2 -3 4 4 6 0 1 1 2 4 12 6 1 -2 1 -0 -0
21 8 11 -1 2 -3 -0 -3 -2 -1 -6 -5 -4 -0 -5 2 -3 9 4 0 -1 5 4 59 33 21 24 3 -3 -2 -1 -3 0 -2 -2 3 10 11 -5 2 4 -2 -1 -1
12 3 9 4 4 1 -1 -1 -0 -4 -7 -6 -1 -0 -2 -3 -2 2 3 -5 4 -0 3 5 4 -0 4 12 13 9 -2 -3 -2 -6 -2 -3 -3 28 -0 -0 -2 -0 -1 -3
4 5 4 0 0 -1 -0 -1 2 -2 4 -3 -4 -2 -2 -0 -4 -3 -2 0 -0 1 4 4 7 3 2 7 2 20 23 3 14 14 3 11 4 6 -2 0 1 3 0 2
3 -1 -2 1 -0 -2 -1 -2 -5 -2 -2 -3 -4 1 -1 -0 -6 -2 0 4 0 4 0 -3 -3 -0 -1 -4 -2 -0 2 4 12 10 3 2 5 1 3 8 7 3 -1 -1
1 2 4 -1 -4 -9 -5 -4 -4 -5 -0 -1 -1 -1 1 2 2 3 6 5 2 7 5 1 1 -1 1 -1 -1 -0 -0 -1 1 6 13 8 6 6 5 5 7 7 8 5
2 -5 2 -3 -1 -4 -9 -5 -4 -3 -0 1 -0 1 4 3 -0 2 5 1 6 7 2 1 1 1 1 1 1 1 3 3 2 2 3 3 1 -3 -1 -1 -3 2 0 -3
1 -3 -1 -2 1 1 0 -4 2 3 2 2 1 1 3 8 3 2 0 1 8 13 11 7 2 4 3 2 1 2 -1 -1 -1 -1 -3 -5 -3 -2 -2 -1 -2 -2 -1 -2
1 0 -2 -4 -0 14 8 -2 2 2 2 1 1 2 1 2 0 5 1 1 1 1 5 10 2 -0 2 1 2 1 3 0 -2 -1 -2 1 -0 1 -1 -1 0 0 -3 -2
Height
5643 5645 5649 5652 5651 5656 5658 5658 5661 5666 5668 5670 5672 5673 5677 5681 5682 5684 5685 5687 5688 5690 5692 5696 5701 5706 5710 5714 5717 5718 5717 5717 5717 5716 5718 5719 5719 5719 5718 5716 5715 5714 5714 5712
5638 5638 5641 5643 5646 5647 5649 5651 5654 5656 5660 5661 5665 5666 5668 5672 5675 5675 5676 5678 5679 5682 5686 5690 5695 5700 5704 5709 5711 5712 5711 5712 5711 5712 5715 5715 5714 5714 5713 5711 5708 5708 5708 5710
5630 5632 5634 5635 5639 5640 5642 5644 5647 5649 5652 5654 5655 5659 5660 5664 5666 5666 5668 5669 5671 5675 5679 5684 5689 5694 5698 5703 5705 5705 5706 5707 5707 5709 5710 5710 5710 5710 5709 5706 5705 5704 5703 5705
5623 5626 5627 5629 5633 5634 5635 5635 5638 5640 5643 5646 5647 5648 5653 5656 5656 5658 5659 5660 5664 5669 5673 5677 5682 5688 5693 5697 5699 5699 5701 5702 5703 5705 5706 5706 5707 5707 5705 5703 5701 5699 5699 5698
5619 5619 5620 5622 5625 5625 5627 5629 5631 5633 5635 5637 5642 5641 5644 5647 5648 5648 5650 5653 5658 5662 5667 5671 5677 5681 5685 5690 5693 5694 5696 5698 5699 5701 5702 5703 5704 5704 5703 5702 5699 5697 5696 5697
5613 5613 5615 5614 5617 5619 5621 5623 5625 5626 5628 5630 5635 5636 5635 5638 5640 5640 5642 5646 5651 5655 5660 5665 5671 5675 5680 5683 5687 5690 5692 5694 5696 5697 5698 5699 5701 5701 5700 5700 5699 5696 5695 5696
5608 5607 5609 5609 5610 5612 5615 5618 5620 5621 5622 5624 5626 5627 5630 5630 5632 5634 5636 5640 5643 5648 5654 5660 5665 5670 5675 5678 5682 5686 5688 5690 5692 5694 5694 5696 5697 5698 5698 5698 5697 5696 5695 5695
5602 5603 5603 5605 5606 5606 5608 5612 5614 5613 5615 5618 5618 5620 5620 5623 5624 5625 5628 5632 5636 5642 5649 5654 5660 5665 5668 5672 5677 5681 5683 5686 5688 5690 5691 5692 5694 5694 5695 5696 5696 5695 5694 5694
5594 5596 5597 5599 5601 5603 5603 5605 5608 5608 5609 5611 5615 5615 5614 5616 5618 5618 5621 5625 5631 5637 5644 5649 5654 5659 5664 5668 5673 5676 5679 5682 5685 5687 5687 5689 5690 5691 5691 5693 5693 5694 5694 5693
5586 5589 5590 5592 5595 5597 5598 5600 5603 5603 5605 5606 5608 5609 5609 5609 5611 5612 5615 5620 5625 5631 5638 5644 5649 5654 5659 5664 5667 5672 5674 5678 5682 5683 5683 5685 5686 5687 5688 5689 5689 5690 5692 5692
5578 5580 5582 5587 5588 5590 5592 5594 5596 5598 5599 5601 5603 5603 5604 5604 5604 5607 5609 5613 5618 5624 5631 5638 5642 5646 5652 5657 5662 5666 5669 5674 5678 5680 5680 5681 5682 5683 5684 5685 5687 5688 5688 5689
5569 5571 5574 5578 5580 5583 5586 5589 5591 5592 5596 5596 5597 5599 5597 5599 5601 5600 5601 5606 5611 5618 5625 5631 5636 5640 5645 5650 5656 5659 5663 5669 5673 5675 5676 5677 5678 5679 5680 5682 5683 5684 5685 5686
5559 5563 5567 5571 5574 5575 5579 5582 5584 5586 5588 5591 5594 5597 5595 5595 5595 5595 5595 5599 5606 5611 5618 5624 5629 5634 5639 5644 5649 5653 5658 5664 5668 5669 5671 5673 5674 5675 5677 5678 5679 5680 5682 5684
5549 5554 5559 5564 5567 5569 5572 5575 5578 5581 5583 5586 5588 5589 5588 5587 5589 5589 5592 5595 5600 5606 5612 5618 5622 5626 5632 5638 5643 5647 5650 5657 5662 5663 5665 5667 5669 5671 5672 5673 5675 5676 5678 5679
5543 5546 5551 5556 5560 5562 5564 5567 5572 5575 5578 5581 5583 5584 5583 5583 5584 5586 5589 5592 5598 5601 5606 5611 5616 5621 5625 5630 5635 5639 5645 5651 5654 5655 5658 5660 5663 5666 5667 5669 5670 5671 5672 5675
5535 5540 5543 5547 5552 5552 5556 5560 5565 5568 5571 5575 5577 5578 5579 5579 5579 5580 5582 5586 5590 5595 5599 5605 5610 5614 5620 5625 5628 5633 5639 5644 5645 5647 5651 5654 5656 5658 5660 5662 5664 5666 5667 5668
5527 5532 5536 5540 5544 5546 5551 5555 5559 5563 5565 5568 5570 5572 5574 5575 5575 5577 5578 5581 5580 5586 5592 5597 5602 5608 5611 5615 5621 5626 5631 5634 5637 5641 5644 5647 5649 5650 5653 5654 5655 5658 5660 5662
5519 5523 5526 5532 5538 5543 5545 5550 5555 5557 5559 5562 5564 5566 5569 5570 5571 5572 5574 5577 5576 5576 5580 5588 5595 5601 5605 5609 5614 5620 5623 5626 5629 5633 5635 5638 5640 5643 5644 5646 5648 5650 5652 5654
5514 5519 5523 5527 5533 5537 5541 5546 5550 5552 5554 5556 5559 5561 5563 5565 5567 5569 5570 5571 5574 5575 5578 5574 5585 5593 5599 5602 5606 5610 5615 5618 5621 5624 5626 5630 5632 5633 5635 5637 5640 5642 5643 5645
5510 5515 5521 5525 5530 5533 5537 5541 5544 5547 5549 5550 5553 5555 5558 5560 5562 5565 5566 5568 5569 5572 5573 5574 5579 5585 5589 5593 5598 5602 5606 5609 5612 5615 5617 5619 5621 5622 5625 5626 5630 5632 5633 5634
5509 5512 5517 5521 5525 5530 5532 5536 5539 5543 5548 5546 5548 5549 5552 5554 5557 5559 5560 5562 5563 5566 5568 5570 5573 5577 5581 5584 5589 5593 5596 5600 5603 5603 5605 5609 5611 5611 5615 5615 5617 5619 5621 5622
5508 5513 5516 5519 5522 5528 5529 5533 5536 5537 5539 5542 5543 5545 5547 5549 5551 5555 5555 5556 5557 5560 5561 5564 5568 5570 5574 5577 5580 5582 5586 5588 5591 5592 5594 5598 5600 5599 5601 5602 5601 5605 5608 5609
5506 5510 5513 5518 5521 5524 5526 5528 5530 5531 5534 5537 5539 5541 5542 5544 5547 5550 5551 5551 5552 5554 5557 5559 5561 5564 5566 5569 5572 5575 5577 5579 5581 5582 5581 5584 5585 5587 5587 5587 5588 5591 5592 5594
5502 5506 5510 5513 5518 5519 5521 5523 5525 5527 5529 5531 5534 5536 5539 5541 5543 5544 5546 5547 5549 5551 5553 5555 5557 5559 5560 5563 5565 5567 5569 5570 5571 5572 5574 5575 5576 5577 5578 5579 5580 5580 5581 5581
5499 5503 5505 5510 5514 5514 5514 5517 5520 5522 5524 5526 5528 5531 5534 5536 5538 5540 5541 5543 5545 5548 5549 5550 5552 5553 5555 5556 5558 5559 5561 5562 5563 5564 5566 5567 5568 5569 5570 5570 5570 5570 5571 5572
5498 5500 5503 5508 5510 5510 5512 5515 5517 5518 5520 5522 5523 5526 5529 5531 5533 5535 5536 5538 5540 5542 5544 5546 5546 5547 5548 5549 5550 5552 5553 5554 5556 5557 5558 5558 5559 5559 5560 5559 5559 5559 5558 5557